Regional Weather Roundup
Issued by NWS

Home | Current Version | Previous Version | Graphics & Text | Print | Product List | Glossary On
Versions: 1 2 3 4 5 6 7 8 9 10 11 12 13 14 15 16 17 18 19 20 21 22 23 24 25 26 27 28 29 30 31 32 33 34 35 36 37 38 39 40 41 42 43 44 45 46 47 48 49 50
000
ASUS43 KMPX 211001
RWRMN
WEATHER ROUNDUP FOR MINNESOTA
NATIONAL WEATHER SERVICE TWIN CITIES/CHANHASSEN MN
500 AM CDT TUE APR 21 2015


NOTE: "FAIR" INDICATES FEW OR NO CLOUDS BELOW 12,000 FEET WITH NO
SIGNIFICANT WEATHER AND/OR OBSTRUCTIONS TO VISIBILITY. N/A MEANS
CURRENT SKY AND/OR WEATHER CONDITIONS ARE NOT AVAILABLE.

MNZ060>063-068>070-211100-
   Twin Cities Metro

CITY           SKY/WX    TMP DP  RH WIND       PRES   REMARKS
TWIN CITIES    CLOUDY    37  25  61 W21G29    29.53R
ST PAUL        CLOUDY    36  25  64 W16G29    29.53S
CRYSTAL        CLOUDY    37  23  56 NW17G30   29.51S
BLAINE         CLOUDY    37  27  65 W20G30    29.51S
LAKEVILLE      CLOUDY    36  27  69 W22G29    29.53S
EDEN PRAIRIE   CLOUDY    37  24  59 NW21G29   29.53S
SOUTH ST PAUL  CLOUDY    37  24  60 NW21G30   29.52S
LAKE ELMO      CLOUDY    36  28  75 W9        29.51F
$$
MNZ001>005-007-008-013>017-022>024-027-028-211100-
   Northwest Minnesota

CITY           SKY/WX    TMP DP  RH WIND       PRES   REMARKS
BEMIDJI        LGT SNOW  29  26  88 NW16G25   29.49R WCI  17
HALLOCK        FLURRIES  32  28  86 N21G30    29.63R WCI  20
ROSEAU         LGT SNOW  30  25  80 NW10      29.54S WCI  21
WARROAD        CLOUDY    30  27  86 NW13G23   29.53R WCI  20
THIEF RVR FALL CLOUDY    30  25  80 NW17      29.58R WCI  18
CROOKSTON      LGT SNOW  32  30  93 N30G37    29.62R WCI  18
FOSSTON        CLOUDY    28  25  86 NW20G26   29.56R WCI  15
DETROIT LAKES  MIX PCPN  32  30  93 NW17G29   29.58R WCI  21
MOORHEAD       CLOUDY    34  27  75 NW22G28   29.64S WCI  22
PARK RAPIDS    LGT SNOW  33  26  75 NW15      29.49S WCI  23
MAHNOMEN       CLOUDY    30  27  89 NW18G25   29.56S WCI  18
$$
MNZ006-009>011-018-025>026-211100-
   North Central Minnesota

CITY           SKY/WX    TMP DP  RH WIND       PRES   REMARKS
BAUDETTE       LGT SNOW  29  25  85 NW17G24   29.46R FOG     WCI  17
FLAG ISLAND    LGT SNOW  28  27  93 N23       29.50R WCI  14
INTL FALLS     LGT SNOW  28  25  88 NW20      29.39R VSB 3/4 WCI  15
WASKISH        FLURRIES  30  28  93 NW15G21   29.47R WCI  19
BIG FORK       LGT SNOW  30  27  86 NW7       29.41R WCI  23
LONGVILLE      FLURRIES  30  27  86 NW9G18    29.46R WCI  22
GRAND RAPIDS   CLOUDY    30  25  80 NW15G29   29.41S WCI  19
CRANE LAKE     CLOUDY    28  28 100 NW10G20   29.36R VSB 1   WCI  19
ORR            LGT SNOW  30  27  86 NW14G20   29.33S WCI  20
COOK           LGT SNOW  28  28 100 W9        29.35S WCI  20
$$
MNZ012-019>021-037-211100-
   Northeast Minnesota

CITY           SKY/WX    TMP DP  RH WIND       PRES   REMARKS
DULUTH         LGT SNOW  31  27  85 W15G23    29.35R FOG     WCI  20
ELY            LGT SNOW  30  28  93 N6        29.30R WCI  24
HIBBING        LGT SNOW  30  25  81 NW15G22   29.37R WCI  19
EVELETH        LGT SNOW  32  32 100 W9        29.36R WCI  24
DULUTH HARBOR  CLOUDY    36  28  75 W22       29.39S
TWO HARBORS    CLOUDY    36  28  75 W8        29.32R
SILVER BAY     CLOUDY    34  28  80 W3        29.29S
GRAND MARAIS     N/A     35  29  78 W6        29.26R WCI  30
G MARAIS ARPRT FLURRIES  28  25  86 NW9       29.21S WCI  20
$$
MNZ029>031-032-039>041-046>048-054>057-064-211100-
   West Central Minnesota

CITY           SKY/WX    TMP DP  RH WIND       PRES   REMARKS
FERGUS FALLS   CLOUDY    32  27  80 NW21      29.64R WCI  20
WHEATON        CLOUDY    32  25  74 W17       29.68S WCI  21
MORRIS         CLOUDY    34  28  80 NW16      29.63S WCI  23
ALEXANDRIA     CLOUDY    32  24  72 NW23G31   29.58S WCI  19
ELBOW LAKE     CLOUDY    32  28  84 NW17      29.61S WCI  21
WADENA         DRIZZLE   30  25  80 NW18G24   29.53S WCI  18
GLENWOOD       CLOUDY    32  25  74 NW23      29.59S WCI  19
APPLETON       PTCLDY    36  27  69 NW24G31   29.66R
BENSON         CLOUDY    34  28  80 N15G23    29.64R WCI  24
ORTONVILLE     MOCLDY    34  25  69 NW15G28   29.67R WCI  24
MADISON        CLOUDY    36  25  64 NW18G25   29.68R
WILLMAR        MOCLDY    34  28  80 NW21      29.62S WCI  22
$$
MNZ033>034-036-042>043-049>051-058-059-211100-
   Central Minnesota

CITY           SKY/WX    TMP DP  RH WIND       PRES   REMARKS
ST CLOUD       CLOUDY    33  22  63 NW18G26   29.54R WCI  22
SAUK CENTRE    CLOUDY    32  23  70 NW17G24   29.57S WCI  21
PAYNESVILLE    CLOUDY    31  24  75 W17G24    29.59R WCI  19
AITKIN         LGT SNOW  34  27  75 W9        29.44S WCI  26
PINE RIVER     CLOUDY    30  27  86 W10       29.52S WCI  21
BRAINERD       LGT SNOW  31  26  82 NW12      29.49S WCI  22
STAPLES        CLOUDY    30  25  80 W14       29.52S WCI  20
LONG PRAIRIE   CLOUDY    32  23  69 W15G23    29.55S WCI  22
LITTLE FALLS   CLOUDY    32  23  69 W14G20    29.52S WCI  22
LITCHFIELD     CLOUDY    36  28  75 NW18G36   29.58R
BUFFALO        CLOUDY    35  24  66 W20G31    29.56R WCI  23
MAPLE LAKE     CLOUDY    34  26  72 NW16G24   29.56R WCI  24
$$
MNZ037-044-045-052-053-211100-
   East Central Minnesota

CITY           SKY/WX    TMP DP  RH WIND       PRES   REMARKS
PRINCETON      CLOUDY    36  25  64 W18G25    29.51S
MORA           FLURRIES  32  27  80 W13       29.49S WCI  22
CAMBRIDGE      CLOUDY    36  25  64 W15G25    29.48S
RUSH CITY      CLOUDY    33  26  76 W16G22    29.48S WCI  23
MOOSE LAKE     FLURRIES  32  28  86 W9        29.41S WCI  24
HINCKLEY       FLURRIES  32  30  93 W13G18    29.46S WCI  22
CLOQUET        LGT SNOW  30  27  86 W13G24    29.38S WCI  20
MCGREGOR       CLOUDY    32  28  86 W12       29.44S WCI  23
$$
MNZ071>073-080-081-089-090-097-098-211100-
   Southwest Minnesota

CITY           SKY/WX    TMP DP  RH WIND       PRES   REMARKS
MONTEVIDEO     CLOUDY    36  27  69 N16       29.65S
GRANITE FALLS  MOCLDY    33  28  80 W16       29.67R WCI  23
CANBY          PTCLDY    33  27  79 NW16      29.70R WCI  22
MARSHALL       CLEAR     34  23  64 NW18G25   29.66S WCI  23
REDWOOD FALLS  MOCLDY    35  27  72 W22G30    29.63S WCI  23
OLIVIA         CLOUDY    34  28  80 NW15      29.61S WCI  24
PIPESTONE      CLEAR     28  25  86 W9        29.68S WCI  20
WINDOM         PTCLDY    32  27  80 W9        29.66S WCI  24
WORTHINGTON    CLEAR     30  21  69 W13       29.68F WCI  20
JACKSON        CLEAR     34  27  75 W10       29.67S WCI  26
TRACY          PTCLDY    33  28  79 W8        29.66S WCI  27
SLAYTON        CLEAR     32  26  78 W12       29.67F WCI  23
$$
MNZ065>067-074>077-082>085-091>093-211100-
   South Central Minnesota

CITY           SKY/WX    TMP DP  RH WIND       PRES   REMARKS
MANKATO        CLOUDY    36  25  64 W17G26    29.60S
NEW ULM        CLOUDY    34  27  75 W15       29.62S WCI  24
ST JAMES       MOCLDY    36  27  69 W15       29.65S
FAIRMONT       CLOUDY    36  25  64 W14       29.65S
GLENCOE        FLURRIES  34  32  91 W17       29.57S WCI  24
FARIBAULT      CLOUDY    36  28  75 W17G25    29.56S
OWATONNA       CLOUDY    36  28  75 W23G32    29.57S
WASECA         CLOUDY    37  32  81 W17       29.60S
ALBERT LEA     MOCLDY    36  28  75 W9G24     29.60R
$$
MNZ078>079-086>088-094>096-211100-
   Southeast Minnesota

CITY           SKY/WX    TMP DP  RH WIND       PRES   REMARKS
ROCHESTER      CLOUDY    35  28  75 W22G28    29.54S WCI  23
RED WING       CLOUDY    37  27  65 NW12G23   29.51S
STANTON        CLOUDY    37  27  66 W17G26    29.54R
DODGE CENTER   CLOUDY    36  28  75 W21G28    29.54S
WINONA         CLOUDY    36  30  80 NW10G21   29.53S
AUSTIN         CLOUDY    36  28  75 W16G25    29.58S
PRESTON        CLOUDY    34  26  72 W22G29    29.55F WCI  23
$$
ABBREVIATIONS USED IN REMARKS
   TC - TEMPERATURES IN CELSIUS
  WCI - WIND CHILL INDEX
   HX - HEAT INDEX
  VSB - VISIBILITY
$$


USA.gov is the U.S. government's official web portal to all federal, state and local government web resources and services.